Weather History for KIZG - October, 2012

Change the Weather History Date:

Friday, October 19, 2012

  Actual Average Record
Temperature  
Mean Temperature 52 °F -  
Max Temperature 57 °F 55 °F 68 °F (1998)
Min Temperature 46 °F 30 °F 19 °F (1999)
Degree Days  
Heating Degree Days 14    
Growing Degree Days 2 (Base 50)    
Moisture  
Dew Point 52 °F    
Average Humidity 97    
Maximum Humidity 100    
Minimum Humidity 87    
Precipitation  
Precipitation 1.19 in - - ()
Sea Level Pressure  
Sea Level Pressure 29.99 in    
Wind  
Wind Speed 3 mph (NNE)    
Max Wind Speed 10 mph    
Max Gust Speed 18 mph    
Visibility 5 miles    
Events Rain    
Averages and records for this station are not official NWS values.
T = Trace of Precipitation, MM = Missing Value Source: NWS Daily Summary

Daily Weather History Graph

Daily Weather History Graph

Search for Another Location

Airport or City:

Trip Planner

Search our weather history database for the weather conditions in past years. The results will help you decide how hot, cold, wet, or windy it might be!

Date:

Astronomy

Oct. 19, 2012 Rise Set
Actual Time 7:03 AM EDT 5:52 PM EDT
Civil Twilight 6:34 AM EDT 6:21 PM EDT
Nautical Twilight 6:01 AM EDT 6:55 PM EDT
Astronomical Twilight 5:27 AM EDT 7:28 PM EDT
Moon 11:51 AM EDT (10/19) 9:20 PM EDT (10/19)
Length of Visible Light 11h 47m
Length of Day
10h 48m
Waxing Crescent, 23% of the Moon is Illuminated
Oct 19
Waxing Crescent
Oct 21
First Quarter
Oct 29
Full
Nov 6
Last Quarter
Nov 13
New

Hourly Weather History & Observations

Time (EDT) Temp. Windchill Dew Point Humidity Pressure Visibility Wind Dir Wind Speed Gust Speed Precip Events Conditions
12:54 AM 46.0 °F 44.8 °F 44.1 °F 93% 30.14 in 10.0 mi WNW 3.5 mph - N/A   Overcast
1:54 AM 46.9 °F - 45.0 °F 93% 30.13 in 10.0 mi Calm Calm - N/A   Overcast
2:07 AM 48.2 °F - 44.6 °F 87% 30.12 in 10.0 mi NNW 3.5 mph - N/A   Overcast
2:54 AM 48.0 °F - 46.0 °F 93% 30.14 in 10.0 mi Calm Calm - N/A   Overcast
3:08 AM 48.2 °F - 46.4 °F 93% 30.14 in 10.0 mi WNW 3.5 mph - N/A   Overcast
3:30 AM 48.2 °F - 46.4 °F 93% 30.13 in 10.0 mi Calm Calm - 0.00 in   Overcast
3:54 AM 48.0 °F - 46.0 °F 93% 30.13 in 10.0 mi Calm Calm - 0.00 in   Overcast
4:54 AM 48.0 °F - 46.0 °F 93% 30.13 in 10.0 mi Calm Calm - N/A   Overcast
5:54 AM 48.0 °F - 46.0 °F 93% 30.12 in 10.0 mi Calm Calm - N/A   Overcast
6:52 AM 48.2 °F - 48.2 °F 100% 30.11 in 1.8 mi NW 3.5 mph - N/A   Overcast
6:54 AM 48.0 °F - 48.0 °F 100% 30.12 in 1.5 mi NW 3.5 mph - N/A   Overcast
7:01 AM 48.2 °F - 48.2 °F 100% 30.11 in 1.2 mi Calm Calm - N/A   Overcast
7:06 AM 48.2 °F - 48.2 °F 100% 30.11 in 2.0 mi North 3.5 mph - N/A   Overcast
7:16 AM 48.2 °F - 48.2 °F 100% 30.11 in 4.0 mi Calm Calm - N/A   Overcast
7:41 AM 48.2 °F - 48.2 °F 100% 30.12 in 1.8 mi Calm Calm - 0.00 in Rain Light Rain
7:54 AM 48.9 °F - 48.9 °F 100% 30.13 in 2.0 mi Calm Calm - 0.00 in Rain Light Rain
8:52 AM 50.0 °F - 48.2 °F 94% 30.11 in 4.0 mi North 3.5 mph - 0.06 in Rain Light Rain
8:54 AM 50.0 °F - 48.9 °F 96% 30.12 in 5.0 mi North 4.6 mph - 0.06 in Rain Light Rain
9:31 AM 50.0 °F - 50.0 °F 100% 30.11 in 2.0 mi North 3.5 mph - 0.01 in Rain Light Rain
9:43 AM 51.8 °F - 50.0 °F 94% 30.11 in 2.5 mi NNW 3.5 mph - 0.01 in Rain Light Rain
9:54 AM 51.1 °F - 50.0 °F 96% 30.12 in 4.0 mi Calm Calm - 0.01 in Rain Light Rain
10:08 AM 51.8 °F - 50.0 °F 94% 30.10 in 2.5 mi North 4.6 mph - 0.01 in Rain Light Rain
10:16 AM 51.8 °F - 50.0 °F 94% 30.10 in 3.0 mi North 3.5 mph - 0.02 in Rain Light Rain
10:54 AM 52.0 °F - 51.1 °F 97% 30.11 in 2.0 mi Calm Calm - 0.03 in Rain Light Rain
11:04 AM 51.8 °F - 51.8 °F 100% 30.11 in 5.0 mi Calm Calm - 0.00 in Rain Light Rain
11:20 AM 51.8 °F - 51.8 °F 100% 30.08 in 2.0 mi North 5.8 mph - 0.02 in Rain Light Rain
11:29 AM 51.8 °F - 51.8 °F 100% 30.07 in 7.0 mi NNE 3.5 mph - 0.02 in Rain Light Rain
11:41 AM 53.6 °F - 51.8 °F 94% 30.07 in 7.0 mi Variable 3.5 mph - 0.02 in   Overcast
11:54 AM 53.1 °F - 52.0 °F 96% 30.07 in 7.0 mi Calm Calm - 0.02 in   Overcast
12:54 PM 53.1 °F - 53.1 °F 100% 30.05 in 6.0 mi NW 3.5 mph - N/A   Overcast
1:26 PM 53.6 °F - 53.6 °F 100% 30.03 in 8.0 mi Calm Calm - N/A   Overcast
1:54 PM 55.0 °F - 54.0 °F 96% 30.03 in 7.0 mi North 4.6 mph - 0.00 in Rain Light Rain
2:54 PM 55.0 °F - 54.0 °F 96% 30.00 in 10.0 mi North 4.6 mph - 0.00 in   Overcast
3:23 PM 55.4 °F - 55.4 °F 100% 29.98 in 10.0 mi Calm Calm - N/A   Overcast
3:43 PM 55.4 °F - 53.6 °F 94% 29.98 in 9.0 mi Calm Calm - 0.00 in Rain Light Rain
3:51 PM 55.4 °F - 55.4 °F 100% 29.97 in 10.0 mi Calm Calm - 0.00 in Rain Light Rain
3:54 PM 55.9 °F - 55.0 °F 97% 29.98 in 10.0 mi Calm Calm - 0.00 in Rain Light Rain
4:54 PM 57.0 °F - 55.0 °F 93% 29.96 in 5.0 mi ENE 6.9 mph - 0.02 in Rain Rain
5:04 PM 57.2 °F - 55.4 °F 94% 29.94 in 7.0 mi Variable 4.6 mph - 0.01 in Rain Light Rain
5:15 PM 57.2 °F - 55.4 °F 94% 29.94 in 1.8 mi East 8.1 mph - 0.04 in Rain Rain
5:32 PM 55.4 °F - 55.4 °F 100% 29.93 in 2.0 mi East 5.8 mph - 0.08 in Rain Rain
5:34 PM 55.4 °F - 55.4 °F 100% 29.92 in 1.8 mi East 9.2 mph - 0.09 in Rain Rain
5:52 PM 55.4 °F - 55.4 °F 100% 29.92 in 2.5 mi East 8.1 mph - 0.16 in Rain Rain
5:54 PM 55.9 °F - 55.0 °F 97% 29.92 in 2.5 mi East 8.1 mph - 0.17 in Rain Rain
6:11 PM 55.4 °F - 55.4 °F 100% 29.90 in 3.0 mi East 8.1 mph - 0.05 in Rain Rain
6:21 PM 55.4 °F - 55.4 °F 100% 29.89 in 5.0 mi East 8.1 mph - 0.06 in Rain Light Rain
6:54 PM 55.9 °F - 55.0 °F 97% 29.88 in 4.0 mi East 10.4 mph 18.4 mph 0.12 in Rain Light Rain
7:21 PM 55.4 °F - 55.4 °F 100% 29.86 in 2.5 mi Variable 5.8 mph 17.3 mph 0.04 in Rain Light Rain
7:29 PM 55.4 °F - 55.4 °F 100% 29.86 in 5.0 mi East 6.9 mph - 0.04 in Rain Light Rain
7:54 PM 57.0 °F - 55.9 °F 96% 29.85 in 7.0 mi East 5.8 mph - 0.07 in Rain Light Rain
8:07 PM 55.4 °F - 55.4 °F 100% 29.85 in 1.8 mi East 5.8 mph - 0.12 in Rain Heavy Rain
8:20 PM 55.4 °F - 55.4 °F 100% 29.84 in 2.5 mi NE 4.6 mph - 0.21 in Rain Rain
8:27 PM 55.4 °F - 55.4 °F 100% 29.83 in 3.0 mi ENE 6.9 mph - 0.26 in Rain Rain
8:33 PM 55.4 °F - 55.4 °F 100% 29.82 in 2.5 mi NE 6.9 mph - 0.30 in Rain Heavy Rain
8:52 PM 57.2 °F - 55.4 °F 94% 29.82 in 2.5 mi NNW 4.6 mph - 0.37 in Rain Rain
8:54 PM 57.0 °F - 55.9 °F 96% 29.83 in 2.5 mi NW 3.5 mph - 0.38 in Rain Rain
9:20 PM 57.2 °F - 55.4 °F 94% 29.82 in 1.8 mi NW 4.6 mph - 0.16 in Rain Rain
9:29 PM 55.4 °F - 55.4 °F 100% 29.82 in 2.5 mi NW 4.6 mph - 0.20 in Rain Rain
9:36 PM 55.4 °F - 55.4 °F 100% 29.81 in 7.0 mi NNW 4.6 mph - 0.21 in Rain Light Rain
9:41 PM 55.4 °F - 55.4 °F 100% 29.81 in 6.0 mi North 6.9 mph - 0.22 in Rain Rain
9:54 PM 55.9 °F - 55.9 °F 100% 29.81 in 3.0 mi NNE 4.6 mph - 0.24 in Rain Light Rain
10:04 PM 55.4 °F - 55.4 °F 100% 29.80 in 4.0 mi NNE 5.8 mph - 0.00 in Rain Light Rain
10:31 PM 55.4 °F - 55.4 °F 100% 29.80 in 4.0 mi Variable 3.5 mph - 0.02 in Rain Light Rain
10:54 PM 55.9 °F - 55.0 °F 97% 29.80 in 3.0 mi North 3.5 mph - 0.05 in Rain Light Rain
11:21 PM 55.4 °F - 55.4 °F 100% 29.79 in 4.0 mi Calm Calm - 0.01 in Rain Light Rain
11:54 PM 55.9 °F - 55.0 °F 97% 29.79 in 3.0 mi Calm Calm - 0.02 in Rain Light Rain